Weather reports worldwide

Advertisment
Tomelloso, Spain (8276): temperature & dewpoint: 13.03.2019 09:00:00 - 19.03.2019 09:00:00 (CET)Tomelloso, Spain (8276): wind speed & gusts: 13.03.2019 09:00:00 - 19.03.2019 09:00:00 (CET)Tomelloso, Spain (8276): wind direction: 13.03.2019 09:00:00 - 19.03.2019 09:00:00 (CET)Tomelloso, Spain (8276): reduced air pressure: 13.03.2019 09:00:00 - 19.03.2019 09:00:00 (CET)Tomelloso, Spain (8276): visibility: 13.03.2019 09:00:00 - 19.03.2019 09:00:00 (CET)Tomelloso, Spain (8276): sunshine duration: 13.03.2019 09:00:00 - 19.03.2019 09:00:00 (CET)Tomelloso, Spain (8276): precipitation: 13.03.2019 09:00:00 - 19.03.2019 09:00:00 (CET)
Date & Time tt [°C] td [°C] ff [km/h] ff [kn] fx [km/h] fx [kn] dd ppp [hPa] vv [km] sd [min] rr [mm]
19.03.2019 09:00:00 5,4 -3,6 2 1 4 2 NNW 1026,4 15 0 0,0
19.03.2019 08:00:00 3,1 -5,7 3 1 29 15 S 1026,9 14 0 0,0
19.03.2019 07:00:00 2,2 -6,0 1 1 4 2 SE 1027,0 15 0 -
19.03.2019 06:00:00 1,8 -6,4 4 2 8 5 S 1026,8 14 0 0,0
19.03.2019 05:00:00 2,0 -7,5 4 2 12 6 N 1026,5 17 0 0,0
19.03.2019 04:00:00 2,8 -6,7 6 3 9 5 NNE 1026,1 15 0 0,0
19.03.2019 03:00:00 2,7 -7,5 2 1 6 3 ESE 1026,6 15 0 0,0
19.03.2019 02:00:00 3,4 -7,8 4 2 11 6 ENE 1026,7 15 0 0,0
19.03.2019 01:00:00 4,2 -8,2 5 3 9 5 NNE 1026,3 16 0 -
19.03.2019 00:00:00 5,7 -8,6 5 3 10 6 NE 1025,7 15 0 0,0
18.03.2019 23:00:00 7,0 -9,0 3 2 16 9 NE 1025,1 16 0 0,0
18.03.2019 22:00:00 8,7 -7,8 6 4 14 8 N 1024,4 14 0 0,0
18.03.2019 21:00:00 10,2 -7,8 7 4 16 9 NNW 1023,4 15 0 0,0
18.03.2019 20:00:00 12,4 -7,8 8 4 23 12 NNW 1022,2 15 0 0,0
18.03.2019 19:00:00 14,6 -8,6 11 6 28 15 NNW 1021,4 15 38 -
18.03.2019 18:00:00 16,0 -8,2 10 5 21 12 N 1020,5 16 60 0,0
18.03.2019 17:00:00 17,3 -6,7 6 3 25 13 NW 1019,7 16 60 0,0
18.03.2019 16:00:00 16,1 -3,6 11 6 - - NNE 1020,5 15 60 0,0
18.03.2019 15:00:00 16,5 -3,0 9 5 26 14 NNW 1020,8 18 60 0,0
18.03.2019 14:00:00 14,8 -1,4 10 5 29 16 ENE 1022,2 12 60 0,0
18.03.2019 13:00:00 13,7 1,7 - - - - - 1022,8 13 60 -
18.03.2019 12:00:00 12,8 3,2 11 6 28 15 ENE 1023,4 14 59 0,0
18.03.2019 11:00:00 11,4 2,1 15 8 26 14 ENE 1024,0 14 60 0,0
18.03.2019 10:00:00 9,2 0,9 14 8 - - NE 1024,2 11 40 0,0
18.03.2019 09:00:00 7,3 0,9 12 6 16 9 NE 1024,4 14 6 0,0
18.03.2019 08:00:00 5,7 0,6 7 4 10 5 NNE 1024,1 15 0 0,0
18.03.2019 07:00:00 3,5 -0,7 4 2 7 4 NE 1024,2 13 0 -
18.03.2019 06:00:00 3,4 -1,4 6 4 9 5 ENE 1023,4 14 0 0,0
18.03.2019 05:00:00 3,3 -1,2 6 3 11 6 E 1022,8 14 0 0,0
18.03.2019 04:00:00 3,4 -2,5 8 4 13 7 ENE 1022,7 12 0 0,0
18.03.2019 03:00:00 4,0 -2,0 10 5 13 7 NE 1022,5 13 0 0,0
18.03.2019 02:00:00 6,2 -0,5 3 2 6 4 N 1021,4 14 0 0,0
18.03.2019 01:00:00 6,9 -2,0 3 2 9 5 N 1021,0 12 0 -
18.03.2019 00:00:00 10,1 0,4 5 3 11 6 WNW 1020,2 14 0 0,0
17.03.2019 23:00:00 11,5 0,0 6 3 19 10 W 1019,6 12 0 0,0
17.03.2019 22:00:00 12,8 -0,3 8 5 26 14 W 1019,0 12 0 0,0
17.03.2019 21:00:00 14,0 -1,7 11 6 27 14 W 1018,0 11 0 0,0
17.03.2019 20:00:00 15,7 -2,2 11 6 29 16 W 1017,1 12 0 0,0
17.03.2019 19:00:00 18,0 -3,0 18 10 48 26 W 1016,0 12 22 -
17.03.2019 18:00:00 19,5 -5,4 21 12 44 24 W 1014,9 12 50 0,0
17.03.2019 17:00:00 21,3 -6,4 21 11 42 23 W 1014,0 12 60 0,0
17.03.2019 16:00:00 22,4 -4,8 18 10 37 20 W 1013,8 13 60 0,0
17.03.2019 15:00:00 22,5 -3,9 13 7 30 16 W 1014,4 12 60 0,0
17.03.2019 14:00:00 20,8 -2,5 14 7 27 15 W 1016,0 13 60 0,0
17.03.2019 13:00:00 20,3 -1,4 11 6 24 13 W 1016,8 14 60 -
17.03.2019 12:00:00 18,5 -1,4 14 8 31 17 W 1017,7 11 60 0,0
17.03.2019 11:00:00 17,4 1,3 15 8 36 19 W 1018,2 12 60 0,0
17.03.2019 10:00:00 14,9 2,1 14 8 28 15 WSW 1018,8 12 60 0,0
17.03.2019 09:00:00 12,1 0,9 10 5 53 29 SW 1019,5 14 60 0,0
17.03.2019 08:00:00 9,9 -0,3 9 5 23 12 SSW 1019,3 14 23 0,0
17.03.2019 07:00:00 9,8 -0,7 10 5 21 11 SSW 1018,9 15 0 -
17.03.2019 06:00:00 10,5 -1,0 11 6 21 11 SW 1018,6 14 0 0,0
17.03.2019 05:00:00 10,7 -2,5 10 5 16 9 SW 1018,5 15 0 0,0
17.03.2019 04:00:00 11,5 -3,6 9 5 20 11 SW 1018,4 15 0 0,0
17.03.2019 03:00:00 12,5 -3,9 10 6 20 11 SW 1018,3 15 0 0,0
17.03.2019 02:00:00 12,8 -4,5 9 5 18 10 SW 1018,5 15 0 0,0
17.03.2019 01:00:00 13,7 -4,2 9 5 22 12 SW 1018,5 15 0 -
17.03.2019 00:00:00 14,0 -2,5 4 2 19 11 ENE 1018,8 14 0 0,0
16.03.2019 23:00:00 15,4 -2,2 9 5 19 11 WSW 1018,3 14 0 0,0
16.03.2019 22:00:00 16,8 -2,0 10 5 20 11 WSW 1018,0 14 0 0,0
16.03.2019 21:00:00 16,7 -2,5 5 3 10 6 SSW 1017,6 11 0 0,0
16.03.2019 20:00:00 19,1 -3,9 4 2 29 15 W 1016,8 15 2 0,0
16.03.2019 19:00:00 22,5 -5,4 9 5 23 12 W 1015,8 16 38 -
16.03.2019 18:00:00 25,1 -5,4 9 5 25 14 WNW 1015,0 15 60 0,0
16.03.2019 17:00:00 25,8 -3,9 14 7 28 15 W 1014,9 16 60 0,0
16.03.2019 16:00:00 27,0 -3,9 7 4 23 12 NW 1014,9 13 60 0,0
16.03.2019 15:00:00 26,8 -5,1 6 3 22 12 SE 1015,6 18 60 0,0
16.03.2019 14:00:00 25,4 -4,2 9 5 21 11 N 1017,1 13 60 0,0
16.03.2019 13:00:00 24,4 -3,0 7 4 - - NNE 1018,6 14 60 -
16.03.2019 12:00:00 22,0 -2,0 8 4 14 8 NE 1020,3 17 60 0,0
16.03.2019 11:00:00 19,1 -1,4 6 4 - - NNE 1021,8 14 60 0,0
16.03.2019 10:00:00 14,1 -2,0 5 3 9 5 ENE 1023,5 19 60 0,0
16.03.2019 09:00:00 7,3 -2,0 2 1 7 4 NNE 1025,6 14 60 0,0
16.03.2019 08:00:00 2,2 -4,5 4 2 6 3 ENE 1027,2 15 26 0,0
16.03.2019 07:00:00 2,3 -4,5 2 1 8 4 NE 1027,0 15 0 -
16.03.2019 06:00:00 3,8 -3,3 5 3 7 4 SSW 1026,6 15 0 0,0
16.03.2019 05:00:00 2,6 -4,8 2 1 8 5 NE 1026,9 14 0 0,0
16.03.2019 04:00:00 4,0 -3,9 1 1 6 3 NE 1026,7 14 0 0,0
16.03.2019 03:00:00 5,6 -4,8 4 2 12 6 NNE 1026,6 15 0 0,0
16.03.2019 02:00:00 9,5 -3,0 6 4 12 6 SSW 1025,9 14 0 0,0
16.03.2019 01:00:00 8,4 -3,3 5 3 8 4 SSW 1026,5 13 0 -
16.03.2019 00:00:00 8,6 -3,0 3 1 5 3 S 1026,7 15 0 0,0
15.03.2019 23:00:00 10,1 -3,3 4 2 8 5 SSW 1026,4 12 0 0,0
15.03.2019 22:00:00 11,6 -3,3 5 3 7 4 SSE 1025,6 14 0 0,0
15.03.2019 21:00:00 15,2 -3,6 2 1 6 3 S 1024,1 10 0 0,0
15.03.2019 20:00:00 17,5 -3,9 4 2 8 4 WNW 1023,2 12 5 0,0
15.03.2019 19:00:00 21,0 -5,1 5 3 14 8 N 1022,1 14 36 -
15.03.2019 18:00:00 23,4 -6,7 6 3 - - NE 1021,2 16 60 0,0
15.03.2019 17:00:00 24,0 -6,0 5 3 31 17 NNW 1021,4 15 60 0,0
15.03.2019 16:00:00 23,7 -5,4 5 3 - - N 1021,9 7 60 0,0
15.03.2019 15:00:00 22,8 -4,5 4 2 13 7 N 1022,7 14 60 0,0
15.03.2019 14:00:00 20,9 -4,5 7 4 18 10 NE 1024,1 17 60 0,0
15.03.2019 13:00:00 19,2 -4,5 6 3 14 7 N 1025,3 12 60 -
15.03.2019 12:00:00 16,7 -3,6 5 3 13 7 N 1026,7 12 60 0,0
15.03.2019 11:00:00 13,9 -2,5 4 2 10 5 N 1027,7 12 60 0,0
15.03.2019 10:00:00 11,1 -2,5 3 2 - - NNW 1028,4 14 60 0,0
15.03.2019 09:00:00 6,7 -2,7 1 1 - - SE 1029,7 10 60 0,0
15.03.2019 08:00:00 2,6 -4,2 4 2 9 5 S 1030,7 12 24 0,0
15.03.2019 07:00:00 1,7 -4,5 5 3 10 6 S 1031,0 15 0 -
15.03.2019 06:00:00 3,9 -4,5 5 3 9 5 SW 1030,0 15 0 0,0
15.03.2019 05:00:00 2,7 -5,1 - - - - - 1030,4 14 0 0,0
15.03.2019 04:00:00 2,4 -5,4 - - - - - 1030,6 15 0 0,0
15.03.2019 03:00:00 3,6 -5,4 3 2 8 5 SSW 1030,7 14 0 0,0
15.03.2019 02:00:00 5,7 -5,4 5 3 9 5 SW 1030,6 14 0 0,0
15.03.2019 01:00:00 5,2 -5,7 4 2 7 4 SSW 1030,8 15 0 -
15.03.2019 00:00:00 5,7 -6,0 6 3 10 6 SSW 1030,7 14 0 0,0
14.03.2019 23:00:00 6,8 -6,7 6 3 9 5 SSW 1030,0 13 0 0,0
14.03.2019 22:00:00 11,1 -7,1 4 2 11 6 W 1028,4 15 0 0,0
14.03.2019 21:00:00 10,8 -7,1 7 4 - - NW 1028,2 15 0 0,0
14.03.2019 20:00:00 13,3 -7,5 4 2 - - NW 1027,3 15 0 0,0
14.03.2019 19:00:00 16,2 -8,2 8 4 - - NW 1026,2 14 33 -
14.03.2019 18:00:00 18,8 -7,5 8 4 23 12 NW 1025,3 16 60 0,0
14.03.2019 17:00:00 19,6 -6,0 8 4 - - NW 1025,3 15 60 0,0
14.03.2019 16:00:00 19,1 -5,1 8 4 - - NNW 1025,5 19 60 0,0
14.03.2019 15:00:00 17,8 -4,2 9 5 - - NNW 1026,4 18 60 0,0
14.03.2019 14:00:00 16,7 -3,9 10 5 - - NNW 1027,4 17 60 0,0
14.03.2019 13:00:00 14,3 -3,0 7 4 17 9 NW 1029,0 13 60 -
14.03.2019 12:00:00 12,5 -3,3 5 3 14 7 N 1030,1 14 60 0,0
14.03.2019 11:00:00 10,3 -3,3 6 3 15 8 NW 1031,2 16 60 0,0
14.03.2019 10:00:00 7,5 -3,0 6 3 12 6 W 1032,4 15 60 0,0
14.03.2019 09:00:00 4,4 -3,3 4 2 13 7 W 1033,0 12 60 0,0
14.03.2019 08:00:00 1,7 -3,9 5 3 14 8 WNW 1032,9 13 24 0,0
14.03.2019 07:00:00 0,5 -4,2 3 2 12 7 W 1033,1 14 0 -
14.03.2019 06:00:00 1,7 -4,2 5 3 12 7 W 1032,5 15 0 0,0
14.03.2019 05:00:00 2,2 -4,5 6 4 9 5 NNW 1032,1 16 0 0,0
14.03.2019 04:00:00 3,6 -4,2 3 2 11 6 SSE 1031,9 15 0 0,0
14.03.2019 03:00:00 3,8 -4,5 1 1 - - WSW 1032,2 16 0 0,0
14.03.2019 02:00:00 4,3 -4,5 5 3 - - NNE 1032,1 16 0 0,0
14.03.2019 01:00:00 4,1 -4,5 5 3 13 7 NE 1032,0 16 0 -
14.03.2019 00:00:00 4,5 -4,8 4 2 14 7 ENE 1031,9 13 0 0,0
13.03.2019 23:00:00 6,1 -4,5 9 5 16 8 NNE 1031,1 15 0 0,0
13.03.2019 22:00:00 7,8 -4,8 4 2 - - E 1030,3 15 0 0,0
13.03.2019 21:00:00 10,0 -5,1 11 6 22 12 N 1028,9 15 0 0,0
13.03.2019 20:00:00 11,6 -5,7 9 5 29 16 N 1028,2 14 0 0,0
13.03.2019 19:00:00 13,7 -5,4 16 9 32 17 N 1026,9 15 30 -
13.03.2019 18:00:00 15,6 -6,0 - - - - - 1025,4 13 60 0,0
13.03.2019 17:00:00 17,3 -6,7 12 6 - - NW 1024,8 16 60 0,0
13.03.2019 16:00:00 17,0 -7,5 - - - - - 1024,4 15 60 0,0
13.03.2019 15:00:00 - - - - - - - - - - -
13.03.2019 14:00:00 16,6 -0,3 13 7 36 19 NNW 1024,7 15 54 0,0
13.03.2019 13:00:00 15,0 2,1 8 5 37 20 NNW 1025,7 14 25 -
13.03.2019 12:00:00 13,7 3,2 18 10 32 18 N 1026,0 15 12 0,0
13.03.2019 11:00:00 14,3 4,8 14 7 27 14 N 1025,4 11 60 0,0
13.03.2019 10:00:00 11,2 5,8 7 4 18 10 W 1025,7 17 51 0,0
13.03.2019 09:00:00 9,1 5,8 9 5 18 10 W 1025,6 13 60 0,0

tt = temperature
td = dewpoint
ff = wind speed
fx = gusts
dd = wind direction
ppp = reduced air pressure
vv = visibility
sd = sunshine duration
rr = precipitation

Next stations